Simultaneous Nadir Overpasses (SNOs) Predictions

Prediction of SNOs between AQUA and METOP-A Satellite Orbit:

Table of predicted SNOs for the next 14.0 days since TLE Epoch: 5/25/2019
Index Date (AQUA) Time (AQUA) Lat,Lon (AQUA) SZA (AQUA ) Date (METOP-A) Time (METOP-A) Lat,Lon (METOP-A) SZA (METOP-A ) Distance(km) Time Diff (sec)
1 05/27/2019 19:13:52 75.13,-117.23 53.87 05/27/2019 19:12:40 75.15,-117.16 53.90 2.79 72
2 05/27/2019 20:03:18 -75.17, 50.32 126.10 05/27/2019 20:03:21 -75.19, 50.27 126.08 2.53 3
3 05/27/2019 20:52:47 75.23,-142.22 53.97 05/27/2019 20:54:00 75.23,-142.27 53.96 1.68 73
4 05/30/2019 14:48:07 75.15, -50.84 53.46 05/30/2019 14:47:04 75.16, -50.76 53.48 2.79 63
5 05/30/2019 15:37:33 -75.18, 116.73 126.52 05/30/2019 15:37:45 -75.20, 116.68 126.50 3.09 12
6 05/30/2019 16:27:08 75.55, -76.66 53.89 05/30/2019 16:28:17 75.58, -74.88 53.83 49.60 69
7 06/02/2019 10:22:22 75.18, 15.53 53.10 06/02/2019 10:21:28 75.18, 15.64 53.11 3.28 54
8 06/02/2019 11:11:48 -75.19,-176.88 126.89 06/02/2019 11:12:09 -75.22,-176.92 126.87 2.79 21
9 06/05/2019 05:56:35 75.16, 82.02 52.74 06/05/2019 05:55:52 75.14, 81.90 52.74 3.56 43
10 06/05/2019 06:46:02 -75.22,-110.50 127.20 06/05/2019 06:46:32 -75.23,-110.52 127.19 1.67 30
11 06/08/2019 01:30:50 75.19, 148.35 52.50 06/08/2019 01:30:15 75.20, 148.44 52.52 2.74 35
12 06/08/2019 02:20:17 -75.25, -44.14 127.45 06/08/2019 02:20:56 -75.25, -44.11 127.45 0.80 39




NCC Satellite Simultaneous Nadir Overpasses (SNOs) Prediction Service
